sat.trackr.live / text

‹ back to catalog

SAR-LUPE 2

NORAD 31797 · 2007-030A

PAYLOAD ACTIVE UNKNOWN

§ Identity

Operator
Country
GER
Launch date
2007-07-02
Launch site
PLMSC
Launch vehicle
Mass (kg)
RCS (m²)

Purposes: military

External: N2YO · Heavens-Above · Gunter

§ Orbital elements

Epoch: 2026-09-19T21:53:17.460096Z

Period
92.13 min
Inclination
98.1098°
Eccentricity
0.0003651
Mean motion
15.62964312 rev/d
Perigee alt
376.6 km
Apogee alt
381.6 km
Semi-major
6,757.2 km
B*
1.8788e-4
RAAN
20.1382°
Arg perigee
170.0941°
Mean anomaly
190.0388°
Rev number
7,167

§ Raw data

SAR-LUPE 21 31797U 07030A   26262.91200764  .00016889  00000+0  18788-3 0  99902 31797  98.1098  20.1382 0003651 170.0941 190.0388 15.62964312 71676

JSON: /api/v1/satellites/31797 · /tle

For live sub-satellite position, see the globe view (requires WebGL).

§ Visibility from observer

Set your observer location to see the next 7 days of passes ≥ 10°. The values pass through the URL so the page stays shareable.

No JS? Fill the form by hand. The geolocation button needs JavaScript.